パンスターズ彗星

C/2011 U3 ( PanSTARRS )

English version
Home page
Updated on February 1, 2012

---------------------------------------------------------------------

・ プロフィール

発見日 2011年10月24日
発見光度 21.8等
発見者 Pan-STARRS 1 telescope (Haleakala)

・ 写真集

・ 軌道要素

Epoch 2012 June 2.0 TT = JDT 2456080.5
T 2012 June 3.93222 TT                                  MPC
q   1.0713537            (2000.0)            P               Q
z  -0.0000042      Peri.  287.84227     +0.11712304     -0.73544791
 +/-0.0000131      Node   228.37984     -0.13348134     -0.67756714
e   1.0000045      Incl.  116.78020     -0.98410616     +0.00437420
From 59 observations 2011 Oct. 24-2012 Jan. 26, mean residual 0".4.

・ 星図

・ 光度変化

        m1 = 13.5 + 5 logΔ + 10.0 log r

---------------------------------------------------------------------

軌道要素はM.P.E.C. 2012-B78に掲載されたものです。
星図はステラナビゲータ Ver.8 (アストロアーツ) で作成したものです。
光度グラフはComet for Windowsで作成したものです。

---------------------------------------------------------------------

Copyright(C) Seiichi Yoshida (comet@aerith.net). All rights reserved.